GFSNIL_con_mucape_132.txt.gz
CAPE
39 21 33 41 26 5 1 10 25 8 11 0 0 0 2 5 8 0 0 0 0 0
30 45 37 37 13 2 8 10 15 8 10 10 15 4 12 8 9 9 4 8 0 0
34 34 6 0 3 3 3 3 4 12 5 4 7 11 4 7 3 2 6 4 0 4
5 10 16 38 12 3 4 4 7 12 17 13 6 11 4 5 10 9 3 2 1 0
24 2 0 0 13 4 8 4 3 5 2 0 0 0 0 2 6 3 0 5 5 4
0 0 0 0 2 7 6 4 17 11 8 5 2 0 10 5 4 10 17 12 10 18
0 0 0 0 0 0 3 6 1 0 4 3 9 9 4 9 10 3 4 1 16 5
0 0 0 0 0 0 1 0 3 0 4 2 0 0 5 3 4 3 3 0 0 0
0 0 0 0 0 0 0 0 0 0 0 0 0 0 0 0 0 0 0 0 0 0
0 0 0 0 0 0 0 0 0 0 0 0 0 0 0 0 0 0 0 0 0 0
0 0 0 0 0 0 0 0 0 0 0 0 0 0 0 0 0 0 0 0 0 0
0 0 0 0 0 0 0 0 0 0 0 0 0 0 0 0 0 0 0 0 0 0
0 0 0 0 0 0 0 0 0 0 0 0 0 0 0 0 0 0 0 0 0 0
0 0 0 0 0 0 0 0 0 0 0 0 0 0 0 0 0 0 0 0 0 0

GFSNIL_con_mucape_135.txt.gz
CAPE
110 100 83 86 32 14 21 40 39 42 4 2 1 0 0 0 0 0 0 0 0 0
21 31 39 71 37 58 29 24 34 13 6 2 2 1 0 0 0 2 5 10 0 3
6 0 2 22 33 16 4 2 4 9 14 14 20 7 3 1 1 0 0 7 0 0
16 0 0 0 2 2 2 2 0 9 5 8 7 3 3 6 5 2 3 0 0 0
0 5 5 5 0 0 0 2 2 7 14 11 10 9 0 0 0 0 6 3 3 3
3 4 0 0 1 1 8 3 3 4 3 1 0 0 0 2 10 5 3 2 5 17
0 0 4 4 3 0 2 4 1 0 0 0 3 3 11 7 15 7 4 3 8 7
0 0 0 0 0 0 1 1 4 3 4 3 5 6 4 2 8 8 2 2 3 9
0 0 0 0 0 0 0 0 0 0 0 0 0 0 0 0 0 0 0 0 0 0
0 0 0 0 0 0 0 0 0 0 0 0 0 0 0 0 0 0 0 0 0 0
0 0 0 0 0 0 0 0 0 0 0 0 0 0 0 0 0 0 0 0 0 0
0 0 0 0 0 0 0 0 0 0 0 0 0 0 0 0 0 0 0 0 0 0
0 0 0 0 0 0 0 0 0 0 0 0 0 0 0 0 0 0 0 0 0 0
0 0 0 0 0 0 0 0 0 0 0 0 0 0 0 0 0 0 0 0 0 0

GFSNIL_con_mucape_138.txt.gz
CAPE
184 96 82 41 63 38 27 6 44 18 10 7 0 0 0 0 0 0 0 0 0 0
121 129 96 42 40 0 1 8 6 26 17 11 15 14 0 0 0 0 0 0 0 0
64 77 27 18 7 16 16 9 10 32 28 22 12 7 9 1 0 0 0 0 0 3
0 4 24 58 77 21 17 5 5 7 4 7 7 7 15 8 1 1 0 1 0 0
16 0 0 4 8 3 1 1 5 1 0 4 4 5 1 0 8 5 0 0 0 0
21 9 3 5 6 5 5 1 8 4 0 0 0 5 0 0 0 0 1 0 0 0
1 6 5 2 6 9 9 9 7 9 9 4 2 4 2 1 0 3 3 3 5 2
0 0 1 3 0 0 0 0 0 0 2 4 3 5 8 3 0 8 8 5 8 5
0 0 0 0 2 0 0 0 2 2 2 2 4 6 5 5 7 0 0 0 0 0
0 0 0 0 0 0 0 0 0 0 0 0 0 0 0 0 0 0 0 0 0 0
0 0 0 0 0 0 0 0 0 0 0 0 0 0 0 0 0 0 0 0 0 0
0 0 0 0 0 0 0 0 0 0 0 0 0 0 0 0 0 0 0 0 0 0
0 0 0 0 0 0 0 0 0 0 0 0 0 0 0 0 0 0 0 0 0 0
0 0 0 0 0 0 0 0 0 0 0 0 0 0 0 0 0 0 0 0 0 0

GFSNIL_con_mucape_141.txt.gz
CAPE
25 19 19 46 31 4 13 11 20 64 41 6 0 0 0 0 19 46 78 71 26 0
170 104 61 51 16 44 31 26 16 36 47 30 0 0 1 0 0 1 10 30 0 0
158 79 76 42 34 40 14 15 5 4 9 28 23 21 3 1 0 0 0 0 0 0
123 64 47 44 55 29 16 14 6 22 5 6 5 8 7 1 3 0 1 3 0 0
6 40 56 50 28 36 54 17 4 1 14 3 8 11 3 14 15 9 2 0 0 0
12 8 2 8 6 4 6 2 14 10 6 5 5 2 0 0 0 1 1 0 0 0
0 0 1 0 0 0 1 0 3 0 0 0 1 3 2 5 4 3 2 2 4 0
0 3 2 2 6 11 8 1 0 0 1 1 3 6 10 5 4 0 5 8 8 2
0 0 0 0 0 0 0 2 1 2 1 2 3 1 2 2 0 1 4 5 7 0
0 0 0 0 0 1 0 0 0 0 0 0 0 0 0 0 0 0 0 0 0 0
0 0 0 0 0 0 0 0 0 0 0 0 0 0 0 0 0 0 0 0 0 0
0 0 0 0 0 0 0 0 0 0 0 0 0 0 0 0 0 0 0 0 0 0
0 0 0 0 0 0 0 0 0 0 0 0 0 0 0 0 0 0 0 0 0 0
0 0 0 0 0 0 0 0 0 0 0 0 0 0 0 0 0 0 0 0 0 0

GFSNIL_con_mucape_144.txt.gz
CAPE
116 3 5 9 2 29 34 11 6 5 77 57 20 32 50 41 44 58 26 27 13 0
10 7 14 37 26 5 14 21 12 11 76 72 4 0 10 23 12 27 37 29 17 6
105 52 26 24 19 23 24 30 19 43 49 25 1 19 1 0 0 1 7 18 12 11
42 39 55 15 40 28 29 8 10 29 39 16 10 6 2 1 1 1 0 4 3 0
21 37 14 36 24 17 9 19 21 13 14 14 61 42 21 11 4 10 3 4 0 0
6 20 12 7 12 12 17 22 2 4 5 12 8 9 10 7 1 1 3 2 0 0
0 1 10 13 6 2 10 0 0 3 2 4 13 6 9 3 5 2 1 1 0 9
5 0 0 0 0 0 1 0 0 0 0 2 0 0 0 1 5 1 7 0 0 3
0 0 0 1 0 0 0 0 0 0 0 0 0 2 3 1 2 0 1 4 7 0
0 0 0 0 1 1 1 2 1 0 0 0 0 0 0 0 0 0 3 3 1 0
0 0 0 0 0 0 0 0 0 0 0 0 0 0 0 0 0 0 0 0 0 0
0 0 0 0 0 0 0 0 0 0 0 0 0 0 0 0 0 0 0 0 0 0
0 0 0 0 0 0 0 0 0 0 0 0 0 0 0 0 0 0 0 0 0 0
0 0 0 0 0 0 0 0 0 0 0 0 0 0 0 0 0 0 0 0 0 0